Regional Weather Roundup
Issued by NWS

Home | Current Version | Previous Version | Text Only | Print | Product List | Glossary Off
Versions: 1 2 3 4 5 6 7 8 9 10 11 12 13 14 15 16 17 18 19 20 21 22 23 24 25 26 27 28 29 30 31 32 33 34 35 36 37 38 39 40 41 42 43 44 45 46 47 48 49 50

000
ASUS43 KDTX 050401
RWRMI
MICHIGAN HOURLY REGIONAL WEATHER ROUNDUP
NATIONAL WEATHER SERVICE DETROIT/PONTIAC MI
1200 AM EDT SUN JUL 05 2015

NOTE: "FAIR" INDICATES FEW OR NO CLOUDS BELOW 12,000 FEET WITH NO
SIGNIFICANT WEATHER AND/OR OBSTRUCTION TO VISIBILITY.

MIZ047>049-052>055-059>063-066>070-074>076-081>083-050500-
SOUTHEAST LOWER MICHIGAN

CITY           SKY/WX    TMP DP  RH WIND       PRES   REMARKS
ADRIAN         CLEAR     64  59  83 CALM      30.07R
ALMA           CLEAR     67  61  83 W5        30.05R
ANN ARBOR      CLEAR     57  56  96 W3        30.06R
BAD AXE        MOCLDY    64  57  78 CALM      30.03R
CARO           PTCLDY    63  58  84 SW5       30.02S
DETROIT CITY   CLEAR     67  56  67 S6        30.05R
DETROIT        MOCLDY    67  59  75 S3        30.06R
FLINT          CLEAR     65  58  78 S5        30.04R
GROSSE ILE     CLEAR     70  64  83 S3        30.05R
HILLSDALE      CLEAR     61  61  99 CALM      30.08R
HOWELL         CLEAR     63  58  86 CALM      30.06R

CITY           SKY/WX    TMP DP  RH WIND       PRES   REMARKS
JACKSON        CLEAR     62  59  90 SW3       30.07R FOG
LAMBERTVILLE   CLEAR     64  58  80 CALM      30.07R HAZE
LANSING        CLEAR     65  59  81 CALM      30.06R HAZE
LAPEER         FAIR      59  57  94 CALM      30.05R
MASON          CLEAR     59  56  92 CALM      30.06R
MONROE         CLEAR     66  58  75 CALM      30.05R
MT. CLEMENS    CLEAR     62  58  85 S7        30.03R
PONTIAC        CLOUDY    64  58  80 CALM      30.05R SMOKE
PORT HOPE        N/A     64  58  80 SE9       30.01R
PORT HURON     CLEAR     59  55  88 CALM      30.05R
TRI CITIES     PTCLDY    72  61  68 SW8       30.02R
MIDLAND        FAIR      70  61  73 W5        30.02R
TROY           CLEAR     69  56  63 CALM      30.07R
SAGINAW HB     MOCLDY    70  57  64 SW6       30.01S
$$
MIZ043>046-050>051-056>058-064>065-071>073-077>080-050500-
SOUTHWEST LOWER MICHIGAN

CITY           SKY/WX    TMP DP  RH WIND       PRES   REMARKS
BATTLE CREEK   CLEAR     67  59  75 S3        30.07R
BENTON HARBOR  CLEAR     59  56  89 CALM      30.04S FOG
BIG RAPIDS     CLEAR     62  58  87 CALM      30.05R
COLDWATER      CLEAR     62  58  89 CALM      30.07R
FREMONT        FAIR      61  59  94 CALM      30.04R
HOLLAND        CLEAR     62  58  86 CALM      30.05R
GRAND RAPIDS   PTCLDY    65  59  81 CALM      30.05R
IONIA          FAIR      65  59  81 CALM      30.05R
KALAMAZOO      CLEAR     64  58  80 CALM      30.06R
LUDINGTON      CLEAR     58  55  91 CALM      30.04R FOG
MARSHALL       CLEAR     61  58  91 CALM      30.06R
MOUNT PLEASANT CLEAR     67  62  82 SW5       30.03R
MUSKEGON       CLEAR     62  57  83 CALM      30.05R HAZE
SOUTH HAVEN    CLEAR     59  56  90 CALM      30.05R
$$
MIZ016>042-050500-
NORTHERN LOWER MICHIGAN

CITY           SKY/WX    TMP DP  RH WIND       PRES   REMARKS
ALPENA         CLEAR     57  54  89 CALM      30.03S
BEAVER ISLAND  PTCLDY    55  55  97 CALM      30.02S FOG
BELLAIRE       CLEAR     57  56  94 CALM      30.03R
CADILLAC       CLEAR     58  56  90 CALM      30.05S FOG
CHARLEVOIX     PTCLDY    58  56  91 CALM      30.04F
FRANKFORT      PTCLDY    59  53  81 CALM      30.02F HAZE
GAYLORD        CLEAR     56  55  97 CALM      30.05R FOG
GRAYLING       CLEAR     56  55  99 CALM      30.06R FOG
HARBOR SPRINGS CLEAR     57  55  95 CALM      30.03R
HOUGHTON LAKE  CLEAR     60  56  86 CALM      30.05R
MANISTEE       CLEAR    N/A N/A N/A CALM      30.03S
OSCODA         CLEAR     57  55  91 NW3       30.03R
PELLSTON       CLEAR     54  53  97 CALM      30.03R
ROGERS CITY    CLEAR     56  54  94 CALM      30.04S
TRAVERSE CITY  PTCLDY    61  57  87 CALM      30.01S
$$
MIZ007>008-015-050500-
EASTERN UPPER MICHIGAN

CITY           SKY/WX    TMP DP  RH WIND       PRES   REMARKS
KINROSS        CLEAR     54  54 100 CALM      30.02F
MACKINAC ISLAN CLEAR     57  56  98 NE6       30.02S
NEWBERRY       CLEAR     55  53  94 SE3       30.02S
S. S. MARIE    CLEAR     51  49  92 CALM      30.02S
$$
MIZ004>006-011>014-085-050500-
CENTRAL UPPER MICHIGAN

CITY           SKY/WX    TMP DP  RH WIND       PRES   REMARKS
MANISTIQUE     CLEAR     56  55  96 CALM      30.01R
ESCANABA       CLEAR     61  59  94 S6        29.99S
MENOMINEE      CLEAR     64  57  77 S7        29.98S
SAWYER-GWINN   CLEAR     59  53  79 S3        30.01S
$$
MIZ001>003-009>011-084-050500-
WESTERN UPPER MICHIGAN

CITY           SKY/WX    TMP DP  RH WIND       PRES   REMARKS
IRON MOUNTAIN  PTCLDY    65  60  84 SE7       29.98S
HOUGHTON       PTCLDY    56  50  80 E8        29.97R
COPPER HARBOR    N/A     57  52  83 SW12G18   29.97R
IRONWOOD       PTCLDY    63  61  94 CALM      29.93R
$$

ABBREVIATIONS USED IN REMARKS
   TC - TEMPERATURE IN CELSIUS
  WCI - WIND CHILL INDEX
   HX - HEAT INDEX
  VSB - VISIBILITY




USA.gov is the U.S. government's official web portal to all federal, state and local government web resources and services.